GEFSMW_500_meanwind_246.txt.gz
Wind_Speed
11 10 9 9 8 7 6 6 7 7 6 6 6 6 6 6 5 5 5 6 6 5 5 4 4 4 3 3 2 1 1 1 1 2 3 4 4 5 5 5 6 6 6
10 9 9 9 8 7 6 5 5 5 5 5 5 5 5 5 5 5 4 4 4 4 4 3 3 3 2 2 1 1 1 1 2 2 3 4 5 5 5 6 7 7 7
9 9 8 8 8 7 6 5 5 5 4 4 5 5 5 4 3 3 3 3 2 2 2 2 2 2 1 1 1 1 1 2 3 3 4 4 5 6 7 7 8 8 8
8 8 8 7 7 7 6 5 4 4 4 4 4 4 4 4 3 3 3 3 2 2 2 3 2 1 1 1 2 3 3 3 3 4 4 5 6 6 7 8 8 8 9
7 7 7 7 7 6 6 5 4 3 3 3 3 3 2 3 3 3 2 2 2 2 2 2 1 0 1 2 3 3 4 4 4 4 5 5 6 7 8 8 9 9 9
6 6 6 6 6 6 5 5 4 4 3 3 2 3 2 2 2 2 2 1 1 1 1 0 1 2 2 3 3 4 4 5 5 6 6 7 7 8 9 9 10 10 11
6 5 5 5 5 4 4 5 4 4 3 3 3 3 3 2 2 2 2 2 1 1 1 1 2 2 3 3 4 5 6 6 6 7 8 8 8 9 9 10 11 12 12
6 6 5 5 5 4 4 4 4 3 3 3 3 3 2 2 2 2 2 1 2 2 2 3 3 4 4 4 5 6 7 7 7 8 8 9 9 10 10 11 12 13 13
6 7 6 5 5 4 4 4 4 3 4 3 3 3 2 2 2 2 2 3 3 3 3 4 4 5 6 6 6 7 7 8 8 9 9 10 10 11 11 11 12 12 13
7 7 7 6 6 5 5 5 4 4 4 3 3 3 3 3 3 3 3 4 4 3 3 4 5 5 6 6 6 7 7 8 8 9 9 10 10 11 12 12 12 13 13
8 8 7 7 7 7 7 6 6 5 4 4 4 4 4 5 5 5 5 5 4 2 3 5 5 6 6 7 7 8 8 9 9 10 10 10 11 12 12 13 13 13 13
10 10 10 9 9 9 8 8 7 7 6 6 6 6 6 6 7 6 6 6 5 5 5 6 7 7 8 8 9 9 9 10 10 11 11 11 12 12 13 14 14 14 14
12 12 12 11 11 10 10 9 8 8 8 8 7 8 8 8 9 8 8 8 8 7 7 7 8 9 9 10 10 11 11 12 12 12 12 12 12 13 14 15 15 15 15
13 14 14 13 12 12 12 12 10 10 10 10 10 10 11 11 11 10 10 10 9 9 9 10 10 11 11 12 12 13 13 13 14 13 14 14 14 14 15 16 16 16 16
15 16 16 15 14 14 13 13 13 13 13 12 12 12 12 13 13 12 11 11 12 12 12 12 13 13 13 13 14 15 15 15 15 15 15 16 16 16 17 17 17 17 17
17 17 18 18 16 15 15 14 15 15 15 15 15 15 14 14 14 14 14 14 14 14 14 14 15 15 16 16 16 16 17 17 17 17 17 17 18 18 19 19 19 19 19
20 19 19 19 19 18 18 18 17 17 18 17 17 17 17 17 16 16 16 16 17 17 17 17 17 18 17 18 18 19 19 18 18 19 19 19 20 20 21 21 20 20 20
22 22 22 22 22 21 20 20 20 19 19 20 19 20 19 18 18 18 18 18 19 19 19 19 19 19 19 19 19 20 20 20 20 20 21 21 21 21 22 21 21 21 21
25 24 24 24 24 23 23 22 22 21 21 21 21 21 20 20 20 20 20 20 20 20 20 21 21 21 21 21 21 22 22 22 22 22 22 22 23 23 23 23 23 23 24
27 27 26 26 25 25 25 25 24 23 23 23 23 22 22 22 22 22 22 22 21 21 22 22 22 22 23 24 24 25 24 24 24 24 24 24 23 24 24 25 25 25 25
28 27 27 26 25 26 26 26 25 24 24 24 24 24 24 24 24 24 23 23 23 23 23 24 25 25 25 25 26 26 26 26 26 25 25 25 25 25 25 25 25 25 26
27 27 28 29 28 28 27 26 25 26 26 26 26 26 26 26 26 26 25 25 24 25 25 25 26 27 27 27 27 26 26 26 26 26 26 25 26 26 26 26 26 27 27
28 28 28 29 29 30 29 27 27 27 27 27 27 27 27 28 28 28 27 26 26 26 26 27 27 28 28 28 28 28 28 29 28 27 27 27 27 27 28 28 28 28 28
29 29 29 29 29 29 29 28 28 29 29 28 29 29 28 28 28 28 28 28 27 27 27 28 29 29 30 30 30 30 30 30 30 29 29 29 29 29 29 29 30 31 31
30 29 29 29 29 29 30 29 29 29 29 29 29 29 29 28 28 28 28 28 28 29 29 30 31 31 31 31 31 31 31 30 31 30 31 31 31 31 31 31 31 32 32
31 30 30 30 29 29 29 29 29 30 30 29 29 29 29 29 29 29 29 29 29 29 30 31 32 32 31 31 31 31 31 31 31 31 31 31 32 32 32 32 32 32 32

GEFSMW_500_meanwind_252.txt.gz
Wind_Speed
14 14 14 13 12 11 10 9 8 7 7 7 6 6 6 6 6 6 5 5 4 4 2 2 2 2 3 2 1 1 1 2 2 3 3 4 4 4 4 5 6 7 7
13 13 13 13 12 11 10 9 8 7 6 6 6 6 6 6 6 6 5 5 5 4 3 2 2 3 3 2 2 2 3 3 3 4 4 5 5 5 5 6 7 8 7
10 11 11 12 12 11 10 10 9 7 6 6 6 6 6 6 5 5 5 5 4 4 3 3 2 2 3 3 4 4 4 4 4 5 5 6 5 6 6 6 7 8 8
8 9 10 11 11 11 10 10 9 8 7 6 6 6 5 5 5 5 4 4 4 4 3 3 2 3 3 4 5 5 6 6 6 6 6 6 6 6 7 7 8 9 9
6 8 9 9 10 10 10 10 9 9 7 6 6 5 5 5 5 5 4 4 4 4 3 3 4 4 4 5 5 6 6 7 7 7 7 7 7 8 8 9 9 10 10
6 6 7 7 8 9 9 9 9 8 8 7 6 6 6 5 5 5 5 4 4 4 4 4 5 5 6 6 7 7 7 7 7 8 8 8 9 9 10 10 11 11 12
6 5 6 7 7 7 8 8 8 8 7 7 6 6 6 6 6 6 6 5 5 6 6 6 6 6 7 8 8 8 8 8 9 9 9 10 10 11 11 12 12 13 13
8 7 6 6 7 7 7 7 7 7 7 6 6 6 6 6 6 6 6 6 6 7 7 7 7 7 8 9 9 9 9 10 10 10 11 11 11 12 12 13 13 13 13
9 8 7 7 7 7 7 7 7 7 7 6 6 6 6 6 6 7 7 7 7 7 7 7 8 8 9 10 10 10 10 11 11 11 11 12 12 12 13 14 14 13 13
10 9 7 7 8 8 7 7 7 7 8 7 7 6 6 6 6 7 7 8 8 8 8 8 8 9 9 9 9 10 10 10 11 11 11 12 12 12 13 14 14 14 13
11 10 9 7 8 8 8 8 7 8 8 8 8 7 7 7 7 7 7 7 8 8 9 8 8 9 9 9 10 10 10 11 11 11 12 12 13 13 14 14 14 15 15
11 10 10 10 10 10 10 9 9 9 9 9 9 8 8 8 7 7 7 8 9 10 10 9 9 9 10 10 10 10 11 12 12 12 13 13 14 15 15 15 16 16 15
13 12 12 13 12 12 11 11 10 10 10 10 11 10 10 9 9 8 8 9 9 10 10 10 10 10 11 11 12 11 11 13 13 14 14 14 15 15 16 17 17 17 17
15 14 14 14 14 14 13 13 12 12 11 11 12 10 11 10 10 9 9 9 10 11 11 11 12 12 12 12 13 13 13 14 14 15 16 16 16 17 17 18 19 19 19
16 16 16 16 16 15 15 15 14 13 13 13 12 12 12 12 11 11 11 11 11 12 12 12 12 13 13 14 14 14 15 16 16 17 18 18 19 18 18 18 19 21 21
19 18 18 18 18 17 17 16 16 15 14 14 14 14 14 14 13 13 13 14 14 13 14 14 14 14 15 15 16 16 17 17 18 19 19 19 20 20 20 21 21 21 22
21 20 19 19 20 20 19 18 18 17 17 17 17 16 16 16 16 15 15 15 15 16 15 16 15 15 15 16 17 18 18 19 19 20 21 21 21 21 22 22 23 22 23
23 23 22 21 21 21 21 21 21 20 19 19 19 19 18 18 17 17 17 17 17 18 17 17 17 17 17 17 18 19 20 21 21 22 22 23 23 23 23 24 24 24 24
25 25 24 24 23 24 24 23 22 22 22 21 21 20 20 18 18 18 18 18 19 19 19 19 19 19 19 20 20 21 22 23 24 24 24 24 24 24 25 25 25 26 26
26 26 26 26 25 25 24 24 24 23 22 22 23 22 20 19 19 19 20 21 21 21 21 21 21 21 22 22 23 24 25 25 25 26 25 25 26 26 26 26 27 27 27
27 27 26 27 26 26 25 25 25 24 24 24 24 23 22 22 22 22 22 23 23 23 23 23 23 24 25 25 25 26 27 27 27 28 27 27 27 27 28 28 28 28 28
28 27 27 27 27 27 27 26 26 26 25 25 25 24 23 23 24 25 25 25 25 25 25 25 25 25 26 27 27 27 28 28 28 28 29 29 30 29 30 30 30 30 30
29 29 28 28 28 28 27 28 28 27 27 27 27 26 26 26 26 26 27 26 26 27 26 26 26 26 27 28 28 29 29 30 30 30 31 31 30 30 31 31 31 30 30
30 30 29 29 28 29 28 28 28 28 28 29 28 28 28 28 28 27 27 27 27 27 27 28 28 28 29 29 30 31 31 31 31 32 33 32 31 31 30 31 31 32 31
30 30 29 29 29 29 29 29 29 29 30 29 29 29 29 28 28 28 28 29 29 29 29 29 30 30 31 32 33 33 32 33 33 33 33 33 33 31 31 31 31 32 32
30 30 30 29 29 29 29 29 30 30 30 30 30 29 29 30 30 30 30 30 30 31 31 31 31 32 32 33 33 33 33 33 33 33 33 33 32 32 31 31 32 32 32

GEFSMW_500_meanwind_258.txt.gz
Wind_Speed
15 15 14 13 13 12 12 11 11 10 10 9 9 8 8 7 7 7 7 6 5 5 5 5 3 3 3 2 1 1 1 2 2 3 4 3 4 4 4 4 5 5 5
14 14 13 13 12 12 12 11 11 10 10 9 8 8 8 7 7 6 6 5 5 5 4 3 3 3 3 2 2 1 2 3 3 4 4 4 4 4 4 5 5 5 5
13 12 13 13 13 11 11 11 11 10 10 9 8 7 7 7 6 6 5 5 5 5 4 3 3 3 3 2 2 2 3 3 3 3 3 4 4 5 5 5 5 5 5
10 10 11 12 12 11 10 10 10 9 9 8 7 7 6 6 6 5 4 5 5 4 4 3 2 2 2 2 2 2 3 3 3 3 3 4 4 5 5 5 5 6 6
7 8 9 10 10 10 10 9 8 8 8 8 7 6 6 5 5 5 4 4 4 3 3 3 3 2 2 2 2 2 3 3 4 4 4 4 5 5 5 6 6 7 8
6 6 6 7 8 9 9 8 7 7 7 7 7 7 6 5 4 4 4 4 4 3 3 3 3 2 2 2 3 3 3 3 4 4 5 5 5 5 6 7 8 9 9
5 5 5 5 6 7 7 7 6 5 5 6 6 6 6 5 5 4 4 4 3 3 3 3 3 2 2 3 3 4 4 4 5 5 5 5 6 7 7 8 9 9 9
5 4 5 4 4 5 6 6 6 5 5 5 5 5 5 4 4 4 4 3 3 3 3 2 3 3 3 3 4 4 4 5 5 5 5 6 7 8 8 8 9 9 9
5 4 4 4 4 4 5 5 4 4 4 4 5 5 4 4 4 4 4 4 3 3 3 3 3 3 4 4 4 4 5 5 5 6 6 6 7 8 8 9 10 10 10
7 5 4 4 4 4 4 3 3 4 4 4 4 4 4 4 4 4 4 4 3 3 3 3 3 4 4 5 5 5 5 5 5 5 6 7 7 8 9 10 10 11 11
8 6 6 5 5 4 4 3 3 4 4 4 4 4 4 4 4 4 4 4 3 3 3 3 4 5 5 5 5 5 5 5 6 6 7 7 8 9 10 10 11 11 12
8 9 7 6 6 6 5 5 5 5 5 6 5 5 5 6 5 5 5 4 4 3 3 4 5 5 5 5 5 5 5 6 7 7 8 9 10 10 11 12 12 13 13
9 10 9 9 8 8 7 7 7 8 8 8 7 7 7 7 7 6 6 5 4 4 5 5 5 6 6 6 6 7 7 8 8 9 9 10 11 12 12 13 14 14 15
11 11 11 10 10 9 9 9 9 10 10 9 9 10 9 9 8 7 7 7 6 6 6 7 7 7 8 8 8 9 9 10 10 11 12 13 13 14 15 15 15 15 16
12 10 10 10 10 10 10 11 11 12 11 11 11 12 11 10 9 9 9 9 9 9 8 9 9 9 9 10 11 11 11 12 12 13 14 15 15 16 16 16 17 17 18
13 10 10 10 11 11 12 13 13 13 13 12 12 12 11 11 11 11 11 11 11 11 11 11 11 11 11 12 12 13 13 13 14 15 16 17 17 17 18 18 18 19 19
14 13 12 13 13 14 14 14 14 14 14 13 13 13 13 14 14 14 14 13 14 14 13 13 13 13 14 14 14 14 14 15 16 17 17 18 19 19 19 19 20 21 21
15 15 14 15 15 15 15 15 15 15 15 14 14 14 14 14 13 14 16 16 16 16 16 16 16 16 16 16 16 16 17 17 18 18 19 20 20 21 21 21 22 22 23
17 17 16 17 17 16 16 16 16 16 15 15 15 15 15 15 15 15 16 16 17 17 17 18 18 18 19 19 19 18 18 19 19 20 21 22 22 22 23 23 23 24 24
19 19 19 19 19 18 18 18 17 17 16 16 16 15 15 15 16 17 17 18 19 20 19 20 20 21 21 21 21 21 21 21 21 22 23 23 24 24 24 23 24 24 24
23 22 21 20 20 20 20 19 19 18 17 16 16 17 17 17 18 18 18 19 20 21 21 21 22 22 23 23 23 23 23 22 23 23 24 24 25 25 25 25 25 25 26
25 24 23 23 22 22 21 21 20 19 19 19 18 18 18 18 19 19 19 20 20 20 21 22 22 23 24 24 25 24 24 24 25 25 26 26 26 27 27 27 27 27 27
27 26 26 25 24 23 23 23 22 21 21 21 21 20 20 21 21 21 21 21 21 21 21 22 22 23 24 25 26 26 26 26 27 27 27 27 27 28 28 28 28 28 28
30 29 27 26 25 25 25 25 25 24 23 23 23 23 22 22 22 21 21 22 22 22 22 23 24 25 26 27 27 28 28 28 28 28 28 28 29 30 30 29 30 30 30
30 30 29 28 27 26 26 25 25 25 25 24 24 24 24 23 23 24 24 24 24 24 25 26 27 27 27 28 29 30 30 30 30 30 29 29 31 32 32 32 32 32 32
32 31 31 29 28 28 27 27 26 26 26 25 24 24 24 25 25 25 25 25 26 26 27 28 28 28 29 29 30 30 31 31 31 31 30 31 32 32 33 33 33 33 33

GEFSMW_500_meanwind_264.txt.gz
Wind_Speed
11 11 12 11 11 11 10 9 9 8 8 7 6 6 6 6 6 5 6 6 4 3 3 3 2 1 1 1 1 1 2 2 2 2 3 3 4 4 5 5 6 6 6
8 9 10 10 10 10 10 9 8 7 6 6 6 6 6 6 5 4 4 4 3 3 3 3 2 1 1 1 1 1 1 2 3 3 3 4 4 4 5 5 5 6 6
7 8 9 9 9 9 8 8 7 7 7 7 6 6 6 5 5 4 3 2 1 1 1 1 1 1 2 2 2 2 2 3 3 4 4 4 5 5 5 6 6 7 7
5 6 7 7 7 7 8 7 7 6 7 7 6 6 5 5 4 4 3 2 1 0 1 0 0 1 2 2 3 3 3 3 3 4 4 5 5 5 6 6 7 7 8
4 5 6 6 6 6 6 6 6 6 6 6 6 5 5 5 4 3 3 2 2 1 1 1 1 1 2 2 2 3 3 3 3 3 4 4 5 6 6 7 7 8 8
4 4 5 5 5 4 4 5 5 5 5 4 4 4 4 3 3 3 3 3 3 2 2 2 1 1 2 2 2 2 3 4 4 4 4 5 6 7 8 8 8 9 9
3 4 5 5 4 3 3 3 3 3 3 3 3 3 3 3 3 3 3 3 3 3 3 2 2 2 2 3 3 3 3 4 5 5 6 7 7 7 8 8 9 10 10
4 5 5 5 5 4 4 4 3 2 2 2 1 2 3 3 3 3 3 3 3 3 3 2 2 2 3 3 3 4 4 5 6 7 7 7 8 8 9 9 9 10 11
5 5 5 6 7 6 6 5 4 4 3 3 2 2 2 3 3 4 3 3 3 3 3 3 2 3 3 4 4 5 6 7 7 8 8 8 9 9 10 10 11 11 11
6 6 6 7 7 7 7 6 5 5 5 4 4 3 3 3 5 5 5 4 4 4 3 3 3 3 4 4 5 6 6 6 7 8 9 9 10 10 11 11 11 12 13
7 7 8 8 8 8 8 6 5 5 6 5 5 5 5 5 5 6 6 6 5 4 4 4 5 5 5 6 6 7 7 7 8 8 9 9 10 11 11 12 13 13 14
9 9 9 10 10 10 9 7 7 7 7 6 6 5 5 6 6 6 7 6 5 5 5 5 6 6 6 6 7 8 8 8 9 9 10 10 11 12 12 13 14 14 15
11 10 10 10 11 11 10 9 8 8 7 8 8 7 7 7 7 7 7 7 7 7 7 7 6 6 6 7 8 9 10 10 11 11 12 12 13 13 14 14 14 15 16
12 11 11 11 10 11 10 10 9 8 8 8 8 8 8 8 7 8 8 9 9 9 9 8 8 8 8 9 9 10 11 12 13 13 13 13 14 14 15 15 16 16 17
13 12 11 11 11 11 11 11 10 8 8 8 9 9 9 9 9 10 11 11 11 11 10 10 10 10 10 11 11 12 13 13 14 15 15 15 15 16 16 16 17 18 18
13 13 12 12 12 12 12 11 11 10 9 9 10 10 11 11 11 12 11 12 12 12 12 12 12 12 12 13 14 14 15 15 15 16 17 17 17 18 18 19 19 19 20
15 14 13 12 13 13 12 12 12 12 11 11 11 12 12 12 12 12 12 12 13 14 14 14 14 14 15 15 16 16 17 17 18 18 19 19 19 20 20 20 20 21 21
17 16 15 14 13 14 14 13 13 13 13 12 13 13 13 12 12 13 13 14 14 14 14 15 15 16 16 17 17 18 19 19 20 20 21 22 21 22 23 23 23 23 23
18 18 17 17 15 16 16 16 15 15 15 14 14 14 14 13 13 13 14 14 14 14 15 16 17 18 18 18 19 20 21 21 22 22 23 23 24 24 24 25 25 24 24
19 19 19 19 18 18 18 18 17 17 16 16 16 15 15 15 14 14 15 15 15 15 17 18 19 19 19 20 21 21 22 23 23 24 25 25 25 26 26 26 26 26 26
21 20 20 20 20 20 20 19 19 18 18 18 17 17 17 17 16 16 17 17 17 18 19 19 20 20 21 21 22 22 24 24 24 25 26 26 27 27 28 28 27 27 27
23 22 22 21 21 21 21 21 21 20 20 20 20 19 19 19 19 19 18 19 19 20 20 21 21 20 21 22 22 24 24 25 26 27 27 28 28 28 29 29 30 30 30
25 24 24 24 24 23 22 22 23 22 22 22 22 21 21 22 22 21 21 21 21 21 22 22 22 22 22 23 24 24 25 26 27 28 28 29 29 30 30 31 32 32 32
26 26 27 27 27 26 25 23 24 24 24 24 23 23 23 23 23 23 23 23 24 24 24 24 23 24 24 25 25 26 26 27 28 28 29 30 31 32 32 32 33 33 33
29 28 29 29 29 27 26 25 25 24 24 25 25 25 25 25 25 25 25 25 25 25 25 25 25 26 26 26 26 26 27 28 28 29 30 30 31 32 32 33 33 34 34
32 31 30 30 29 28 27 27 27 27 26 26 26 26 26 26 25 26 26 25 25 26 26 27 27 27 27 27 28 28 29 29 30 31 31 31 32 32 33 34 34 35 35